GLO1727 SBSN-SBEG

Flight info

Callsign GLO1727
Flight time 0h 56m
Altitude 36000
Route NUPAR DCT XOLOK UZ81 KULAB
Aircraft B738/M-SDFGIKLORWXY/LB1

Departure

Time 2026-04-20 23:48
Airport Santarém - Maestro Wilson Fonseca International Airport (SBSN)

Arrival

Time 2026-04-21 00:45
Airport Eduardo Gomes International Airport (SBEG)
Time Latitude Longitude Altitude Speed Heading
2026-04-20 23:23 -2.42361 -54.78506 205 ft 0 kts 155°
2026-04-20 23:39 -2.42343 -54.78513 210 ft 4 kts 177°
2026-04-20 23:40 -2.42320 -54.78507 216 ft 4 kts 223°
2026-04-20 23:40 -2.42308 -54.78493 210 ft 0 kts 248°
2026-04-20 23:42 -2.42311 -54.78498 215 ft 2 kts 248°
2026-04-20 23:42 -2.42322 -54.78525 214 ft 6 kts 246°
2026-04-20 23:43 -2.42350 -54.78573 208 ft 9 kts 251°
2026-04-20 23:43 -2.42329 -54.78618 205 ft 7 kts 314°
2026-04-20 23:43 -2.42287 -54.78659 210 ft 10 kts 319°
2026-04-20 23:43 -2.42226 -54.78713 205 ft 13 kts 319°
2026-04-20 23:44 -2.42173 -54.78787 213 ft 14 kts 284°
2026-04-20 23:44 -2.42179 -54.78907 207 ft 21 kts 263°
2026-04-20 23:44 -2.42204 -54.79073 215 ft 26 kts 261°
2026-04-20 23:44 -2.42232 -54.79245 209 ft 24 kts 261°
2026-04-20 23:45 -2.42258 -54.79406 205 ft 23 kts 260°
2026-04-20 23:45 -2.42283 -54.79560 206 ft 22 kts 261°
2026-04-20 23:45 -2.42308 -54.79710 207 ft 22 kts 260°
2026-04-20 23:45 -2.42332 -54.79856 214 ft 21 kts 261°
2026-04-20 23:46 -2.42355 -54.79998 210 ft 20 kts 261°
2026-04-20 23:46 -2.42377 -54.80133 209 ft 19 kts 261°
2026-04-20 23:46 -2.42396 -54.80242 208 ft 8 kts 257°
2026-04-20 23:46 -2.42429 -54.80283 212 ft 8 kts 211°
2026-04-20 23:47 -2.42441 -54.80327 210 ft 7 kts 309°
2026-04-20 23:47 -2.42411 -54.80323 210 ft 5 kts 54°
2026-04-20 23:47 -2.42397 -54.80249 206 ft 31 kts 81°
2026-04-20 23:47 -2.42322 -54.79795 208 ft 101 kts 81°
2026-04-20 23:48 -2.42171 -54.78895 213 ft 159 kts 79°
2026-04-20 23:48 -2.41973 -54.77731 712 ft 169 kts 81°
2026-04-20 23:48 -2.41809 -54.76565 1462 ft 171 kts 82°
2026-04-20 23:48 -2.41643 -54.75346 2038 ft 184 kts 81°
2026-04-20 23:49 -2.41416 -54.73984 2325 ft 212 kts 80°
2026-04-20 23:49 -2.41250 -54.72988 2447 ft 228 kts 84°
2026-04-20 23:49 -2.41896 -54.70903 2698 ft 257 kts 134°
2026-04-20 23:49 -2.43441 -54.70007 3241 ft 266 kts 167°
2026-04-20 23:50 -2.44687 -54.69923 3775 ft 267 kts 187°
2026-04-20 23:50 -2.46443 -54.70510 4657 ft 267 kts 205°
2026-04-20 23:50 -2.48077 -54.71355 5410 ft 270 kts 207°
2026-04-20 23:50 -2.49737 -54.72249 6176 ft 272 kts 207°
2026-04-20 23:51 -2.51422 -54.73149 6884 ft 276 kts 207°
2026-04-20 23:51 -2.53129 -54.74047 7597 ft 279 kts 207°
2026-04-20 23:51 -2.54861 -54.74945 8301 ft 282 kts 207°
2026-04-20 23:51 -2.56618 -54.75848 9019 ft 285 kts 207°
2026-04-20 23:52 -2.58402 -54.76759 9726 ft 289 kts 207°
2026-04-20 23:52 -2.60187 -54.77668 10245 ft 297 kts 207°
2026-04-20 23:52 -2.62065 -54.78622 10719 ft 307 kts 207°
2026-04-20 23:52 -2.63992 -54.79600 11340 ft 311 kts 207°
2026-04-20 23:53 -2.65936 -54.80585 12006 ft 315 kts 206°
2026-04-20 23:53 -2.67910 -54.81585 12671 ft 319 kts 206°
2026-04-20 23:53 -2.69862 -54.82676 13294 ft 325 kts 217°
2026-04-20 23:53 -2.71323 -54.84403 13913 ft 331 kts 243°
2026-04-20 23:54 -2.71972 -54.86639 14259 ft 346 kts 267°
2026-04-20 23:54 -2.71651 -54.89066 14571 ft 359 kts 284°
2026-04-20 23:54 -2.70983 -54.91495 15101 ft 365 kts 286°
2026-04-20 23:54 -2.70273 -54.93909 15714 ft 367 kts 286°
2026-04-20 23:55 -2.69541 -54.96377 16334 ft 370 kts 286°
2026-04-20 23:55 -2.68809 -54.98868 16929 ft 374 kts 286°
2026-04-20 23:55 -2.68106 -55.01293 17496 ft 377 kts 285°
2026-04-20 23:55 -2.67390 -55.03788 18135 ft 379 kts 285°
2026-04-20 23:56 -2.66666 -55.06334 18640 ft 382 kts 285°
2026-04-20 23:56 -2.65937 -55.08907 19114 ft 386 kts 285°
2026-04-20 23:56 -2.65204 -55.11500 19602 ft 389 kts 285°
2026-04-20 23:56 -2.64464 -55.14118 20098 ft 392 kts 285°
2026-04-20 23:57 -2.63719 -55.16756 20583 ft 395 kts 285°
2026-04-20 23:57 -2.62970 -55.19410 21063 ft 399 kts 285°
2026-04-20 23:57 -2.62212 -55.22092 21530 ft 402 kts 285°
2026-04-20 23:57 -2.61450 -55.24789 21994 ft 405 kts 285°
2026-04-20 23:58 -2.60679 -55.27517 22452 ft 409 kts 285°
2026-04-20 23:58 -2.59900 -55.30276 22869 ft 413 kts 285°
2026-04-20 23:58 -2.59125 -55.33017 23303 ft 416 kts 285°
2026-04-20 23:58 -2.58334 -55.35814 23700 ft 419 kts 285°
2026-04-20 23:59 -2.57540 -55.38626 24070 ft 421 kts 285°
2026-04-20 23:59 -2.56741 -55.41454 24439 ft 424 kts 285°
2026-04-20 23:59 -2.55933 -55.44311 24805 ft 426 kts 285°
2026-04-20 23:59 -2.55198 -55.47181 25150 ft 429 kts 278°
2026-04-21 00:00 -2.55167 -55.50168 25480 ft 430 kts 265°
2026-04-21 00:00 -2.55408 -55.53123 25855 ft 432 kts 264°
2026-04-21 00:00 -2.55661 -55.56124 26214 ft 434 kts 264°
2026-04-21 00:00 -2.55908 -55.59147 26553 ft 437 kts 264°
2026-04-21 00:01 -2.56143 -55.62186 26887 ft 439 kts 265°
2026-04-21 00:01 -2.56368 -55.65244 27227 ft 441 kts 265°
2026-04-21 00:01 -2.56587 -55.68316 27563 ft 444 kts 265°
2026-04-21 00:01 -2.56801 -55.71376 27885 ft 446 kts 265°
2026-04-21 00:02 -2.57016 -55.74488 28202 ft 449 kts 265°
2026-04-21 00:02 -2.57231 -55.77608 28521 ft 451 kts 265°
2026-04-21 00:02 -2.57448 -55.80748 28786 ft 454 kts 265°
2026-04-21 00:02 -2.57667 -55.83915 29027 ft 458 kts 265°
2026-04-21 00:03 -2.57887 -55.87103 29331 ft 460 kts 265°
2026-04-21 00:03 -2.58108 -55.90307 29644 ft 462 kts 265°
2026-04-21 00:03 -2.58331 -55.93523 29930 ft 464 kts 265°
2026-04-21 00:03 -2.58552 -55.96717 30163 ft 466 kts 265°
2026-04-21 00:04 -2.58776 -55.99952 30409 ft 468 kts 265°
2026-04-21 00:04 -2.58993 -56.03099 30655 ft 469 kts 265°
2026-04-21 00:04 -2.59219 -56.06367 30903 ft 471 kts 265°
2026-04-21 00:04 -2.59445 -56.09639 31140 ft 472 kts 265°
2026-04-21 00:05 -2.59671 -56.12924 31370 ft 474 kts 265°
2026-04-21 00:05 -2.59899 -56.16217 31600 ft 476 kts 265°
2026-04-21 00:05 -2.60127 -56.19527 31835 ft 477 kts 265°
2026-04-21 00:05 -2.60353 -56.22805 32050 ft 479 kts 265°
2026-04-21 00:06 -2.60582 -56.26129 32268 ft 480 kts 265°
2026-04-21 00:06 -2.60812 -56.29469 32488 ft 482 kts 265°
2026-04-21 00:06 -2.61043 -56.32815 32701 ft 483 kts 265°
2026-04-21 00:06 -2.61275 -56.36186 32862 ft 486 kts 265°
2026-04-21 00:07 -2.61507 -56.39570 33167 ft 485 kts 265°
2026-04-21 00:07 -2.61739 -56.42931 33548 ft 483 kts 265°
2026-04-21 00:07 -2.62033 -56.46265 33898 ft 481 kts 263°
2026-04-21 00:07 -2.62410 -56.49594 34146 ft 481 kts 262°
2026-04-21 00:08 -2.62816 -56.52875 34386 ft 481 kts 262°
2026-04-21 00:08 -2.63233 -56.56190 34672 ft 479 kts 262°
2026-04-21 00:08 -2.63642 -56.59493 34936 ft 479 kts 262°
2026-04-21 00:08 -2.64041 -56.62806 35074 ft 482 kts 262°
2026-04-21 00:09 -2.64435 -56.66140 35288 ft 482 kts 262°
2026-04-21 00:09 -2.64820 -56.69461 35612 ft 479 kts 262°
2026-04-21 00:09 -2.65201 -56.72767 35908 ft 478 kts 262°
2026-04-21 00:10 -2.65965 -56.79424 35905 ft 482 kts 262°
2026-04-21 00:10 -2.66730 -56.86082 35890 ft 479 kts 263°
2026-04-21 00:11 -2.67486 -56.92649 35910 ft 477 kts 263°
2026-04-21 00:11 -2.68247 -56.99260 35910 ft 477 kts 263°
2026-04-21 00:12 -2.68992 -57.05740 35908 ft 478 kts 263°
2026-04-21 00:12 -2.69751 -57.12342 35913 ft 478 kts 263°
2026-04-21 00:13 -2.70506 -57.18913 35909 ft 478 kts 263°
2026-04-21 00:13 -2.71266 -57.25534 35911 ft 479 kts 263°
2026-04-21 00:14 -2.72027 -57.32165 35910 ft 480 kts 263°
2026-04-21 00:14 -2.72788 -57.38795 35911 ft 480 kts 263°
2026-04-21 00:15 -2.73549 -57.45436 35909 ft 481 kts 263°
2026-04-21 00:15 -2.74313 -57.52099 35910 ft 481 kts 263°
2026-04-21 00:16 -2.75071 -57.58719 35910 ft 481 kts 263°
2026-04-21 00:16 -2.75833 -57.65375 35912 ft 482 kts 263°
2026-04-21 00:17 -2.76596 -57.72043 35908 ft 482 kts 263°
2026-04-21 00:17 -2.77350 -57.78667 35910 ft 482 kts 263°
2026-04-21 00:18 -2.78104 -57.85331 35913 ft 482 kts 263°
2026-04-21 00:18 -2.78863 -57.92001 35911 ft 481 kts 263°
2026-04-21 00:19 -2.79623 -57.98623 35913 ft 481 kts 263°
2026-04-21 00:19 -2.80375 -58.05181 35912 ft 481 kts 263°
2026-04-21 00:20 -2.81136 -58.11835 35912 ft 481 kts 263°
2026-04-21 00:20 -2.81895 -58.18472 35914 ft 481 kts 263°
2026-04-21 00:21 -2.82656 -58.25133 35914 ft 481 kts 262°
2026-04-21 00:21 -2.83036 -58.28464 35734 ft 484 kts 263°
2026-04-21 00:21 -2.83417 -58.31797 35167 ft 488 kts 263°
2026-04-21 00:21 -2.83802 -58.35170 34585 ft 488 kts 263°
2026-04-21 00:22 -2.84187 -58.38550 33961 ft 490 kts 263°
2026-04-21 00:22 -2.84575 -58.41947 33222 ft 492 kts 263°
2026-04-21 00:22 -2.84964 -58.45363 32532 ft 493 kts 263°
2026-04-21 00:22 -2.85353 -58.48772 31977 ft 491 kts 263°
2026-04-21 00:23 -2.85679 -58.52153 31493 ft 487 kts 265°
2026-04-21 00:23 -2.85880 -58.55522 31009 ft 483 kts 267°
2026-04-21 00:23 -2.86021 -58.58865 30525 ft 480 kts 268°
2026-04-21 00:23 -2.86144 -58.62194 30042 ft 477 kts 268°
2026-04-21 00:24 -2.86269 -58.65458 29499 ft 473 kts 268°
2026-04-21 00:24 -2.86405 -58.68729 28973 ft 469 kts 267°
2026-04-21 00:24 -2.86551 -58.71975 28466 ft 464 kts 267°
2026-04-21 00:24 -2.86703 -58.75185 27979 ft 459 kts 267°
2026-04-21 00:25 -2.86858 -58.78381 27494 ft 455 kts 267°
2026-04-21 00:25 -2.87012 -58.81521 27020 ft 451 kts 267°
2026-04-21 00:25 -2.87166 -58.84644 26549 ft 447 kts 267°
2026-04-21 00:25 -2.87315 -58.87701 26088 ft 443 kts 267°
2026-04-21 00:26 -2.87465 -58.90766 25620 ft 439 kts 267°
2026-04-21 00:26 -2.87614 -58.93813 25157 ft 436 kts 267°
2026-04-21 00:26 -2.87761 -58.96840 24689 ft 433 kts 267°
2026-04-21 00:26 -2.87907 -58.99843 24210 ft 430 kts 267°
2026-04-21 00:27 -2.88044 -59.02683 23776 ft 428 kts 267°
2026-04-21 00:27 -2.88189 -59.05657 23258 ft 426 kts 266°
2026-04-21 00:27 -2.88332 -59.08608 22755 ft 422 kts 266°
2026-04-21 00:27 -2.88473 -59.11531 22261 ft 418 kts 266°
2026-04-21 00:28 -2.88613 -59.14425 21817 ft 414 kts 266°
2026-04-21 00:28 -2.88752 -59.17299 21362 ft 411 kts 266°
2026-04-21 00:28 -2.88890 -59.20144 20916 ft 407 kts 266°
2026-04-21 00:28 -2.89024 -59.22926 20477 ft 404 kts 266°
2026-04-21 00:29 -2.89160 -59.25723 20044 ft 401 kts 266°
2026-04-21 00:29 -2.89294 -59.28506 19605 ft 398 kts 266°
2026-04-21 00:29 -2.89427 -59.31263 19159 ft 395 kts 266°
2026-04-21 00:29 -2.89560 -59.34003 18723 ft 393 kts 266°
2026-04-21 00:30 -2.89690 -59.36701 18287 ft 391 kts 266°
2026-04-21 00:30 -2.89820 -59.39414 17797 ft 389 kts 266°
2026-04-21 00:30 -2.89950 -59.42102 17343 ft 386 kts 266°
2026-04-21 00:30 -2.90079 -59.44775 16902 ft 382 kts 266°
2026-04-21 00:31 -2.90206 -59.47423 16471 ft 379 kts 266°
2026-04-21 00:31 -2.90333 -59.50051 16047 ft 376 kts 266°
2026-04-21 00:31 -2.90458 -59.52652 15628 ft 372 kts 266°
2026-04-21 00:31 -2.90580 -59.55201 15219 ft 370 kts 266°
2026-04-21 00:32 -2.90702 -59.57763 14808 ft 367 kts 266°
2026-04-21 00:32 -2.90823 -59.60304 14400 ft 364 kts 266°
2026-04-21 00:32 -2.90942 -59.62822 13997 ft 361 kts 266°
2026-04-21 00:32 -2.91061 -59.65326 13563 ft 359 kts 266°
2026-04-21 00:33 -2.91180 -59.67818 13118 ft 357 kts 266°
2026-04-21 00:33 -2.91297 -59.70290 12699 ft 354 kts 266°
2026-04-21 00:33 -2.91414 -59.72739 12280 ft 351 kts 266°
2026-04-21 00:33 -2.91529 -59.75177 11882 ft 348 kts 266°
2026-04-21 00:34 -2.91644 -59.77590 11550 ft 344 kts 266°
2026-04-21 00:34 -2.91756 -59.79962 11227 ft 339 kts 266°
2026-04-21 00:34 -2.91865 -59.82281 10918 ft 336 kts 266°
2026-04-21 00:34 -2.91975 -59.84602 10605 ft 332 kts 266°
2026-04-21 00:35 -2.92083 -59.86901 10295 ft 329 kts 266°
2026-04-21 00:35 -2.92191 -59.89177 10020 ft 325 kts 266°
2026-04-21 00:35 -2.92295 -59.91400 9943 ft 314 kts 266°
2026-04-21 00:35 -2.92396 -59.93547 9859 ft 304 kts 266°
2026-04-21 00:36 -2.92462 -59.94942 9695 ft 301 kts 266°
2026-04-21 00:36 -2.92561 -59.97032 9432 ft 298 kts 267°
2026-04-21 00:36 -2.92659 -59.99103 9121 ft 297 kts 267°
2026-04-21 00:36 -2.92752 -60.01091 8823 ft 295 kts 267°
2026-04-21 00:37 -2.92848 -60.03127 8379 ft 292 kts 267°
2026-04-21 00:37 -2.92943 -60.05141 7774 ft 297 kts 267°
2026-04-21 00:37 -2.93040 -60.07208 7236 ft 297 kts 267°
2026-04-21 00:37 -2.93136 -60.09271 6766 ft 296 kts 267°
2026-04-21 00:38 -2.93232 -60.11317 6361 ft 292 kts 267°
2026-04-21 00:38 -2.93326 -60.13329 5984 ft 286 kts 267°
2026-04-21 00:38 -2.93419 -60.15308 5561 ft 283 kts 267°
2026-04-21 00:38 -2.93511 -60.17269 5114 ft 281 kts 267°
2026-04-21 00:39 -2.93614 -60.19212 4643 ft 280 kts 263°
2026-04-21 00:39 -2.94252 -60.21024 4172 ft 277 kts 234°
2026-04-21 00:39 -2.95630 -60.22260 3907 ft 265 kts 207°
2026-04-21 00:39 -2.97335 -60.22826 3679 ft 253 kts 185°
2026-04-21 00:40 -2.99062 -60.22906 3474 ft 243 kts 179°
2026-04-21 00:40 -3.00723 -60.22898 3274 ft 235 kts 178°
2026-04-21 00:40 -3.02301 -60.22760 3096 ft 221 kts 159°
2026-04-21 00:40 -3.03450 -60.21890 2891 ft 203 kts 119°
2026-04-21 00:41 -3.03856 -60.20624 2734 ft 187 kts 94°
2026-04-21 00:41 -3.03868 -60.19358 2577 ft 178 kts 87°
2026-04-21 00:41 -3.03842 -60.18145 2421 ft 172 kts 88°
2026-04-21 00:41 -3.03835 -60.16950 2307 ft 175 kts 89°
2026-04-21 00:42 -3.03836 -60.15716 2092 ft 178 kts 89°
2026-04-21 00:42 -3.03839 -60.14482 1857 ft 174 kts 89°
2026-04-21 00:42 -3.03842 -60.13310 1660 ft 160 kts 89°
2026-04-21 00:42 -3.03844 -60.12250 1464 ft 146 kts 89°
2026-04-21 00:43 -3.03846 -60.11246 1261 ft 143 kts 89°
2026-04-21 00:43 -3.03848 -60.10247 1079 ft 144 kts 89°
2026-04-21 00:43 -3.03850 -60.09241 895 ft 144 kts 89°
2026-04-21 00:43 -3.03855 -60.08250 726 ft 145 kts 90°
2026-04-21 00:44 -3.03860 -60.07238 528 ft 144 kts 89°
2026-04-21 00:44 -3.03860 -60.06243 333 ft 141 kts 89°
2026-04-21 00:44 -3.03859 -60.05306 266 ft 121 kts 90°
2026-04-21 00:45 -3.03860 -60.04226 268 ft 42 kts 90°
2026-04-21 00:45 -3.03860 -60.03959 268 ft 32 kts 90°
2026-04-21 00:45 -3.03856 -60.03821 267 ft 8 kts 75°
2026-04-21 00:45 -3.03822 -60.03779 267 ft 8 kts 32°
2026-04-21 00:46 -3.03767 -60.03769 268 ft 9 kts 354°
2026-04-21 00:46 -3.03706 -60.03802 268 ft 11 kts 310°
2026-04-21 00:46 -3.03676 -60.03873 268 ft 11 kts 284°
2026-04-21 00:46 -3.03656 -60.03944 267 ft 11 kts 285°
2026-04-21 00:47 -3.03633 -60.04026 267 ft 14 kts 284°
2026-04-21 00:47 -3.03607 -60.04127 267 ft 15 kts 285°
2026-04-21 00:47 -3.03574 -60.04226 267 ft 15 kts 295°
2026-04-21 00:47 -3.03515 -60.04306 267 ft 14 kts 316°
2026-04-21 00:48 -3.03436 -60.04360 267 ft 13 kts 336°
2026-04-21 00:48 -3.03351 -60.04387 267 ft 10 kts 335°
2026-04-21 00:48 -3.03336 -60.04445 267 ft 9 kts 257°
2026-04-21 00:48 -3.03349 -60.04506 267 ft 9 kts 261°
2026-04-21 00:49 -3.03341 -60.04562 267 ft 8 kts 303°
2026-04-21 00:49 -3.03291 -60.04580 267 ft 8 kts 356°
2026-04-21 00:49 -3.03274 -60.04581 267 ft 0 kts 357°
2026-04-21 00:49 -3.03272 -60.04581 267 ft 1 kts 357°